Simultaneous Nadir Overpasses (SNOs) Predictions

Prediction of SNOs between AQUA and GOES-15 Satellite Orbit:

Table of predicted SNOs for the next 14.0 days since TLE Epoch: 5/25/2013
Index Date Time (AQUA) AQUA Lat,Lon GOES-15 Lat,Lon Distance(km) Time Diff (sec)
1 05/25/2013 10:44:44 0.37,-137.13 -0.02,-135.31 207.78 80
2 05/27/2013 10:32:32 -0.22,-134.17 -0.02,-135.26 123.18 80
3 05/27/2013 22:53:57 -0.84,-139.37 0.03,-135.24 470.10 80
4 05/29/2013 10:20:21 -0.88,-131.22 -0.01,-135.21 453.90 80
5 05/29/2013 22:41:45 -0.22,-136.42 0.02,-135.19 139.29 80
6 05/31/2013 22:29:32 0.35,-133.45 0.02,-135.14 191.47 80
7 06/01/2013 10:50:48 0.70,-138.61 -0.03,-135.14 395.22 80
8 06/03/2013 10:38:35 0.10,-135.65 -0.03,-135.08 64.84 80
9 06/05/2013 10:26:22 -0.52,-132.69 -0.04,-135.02 265.17 80
10 06/05/2013 22:47:46 -0.56,-137.88 0.05,-134.99 328.85 80
11 06/07/2013 22:35:32 0.03,-134.91 0.05,-134.92 2.94 80




NCC Satellite Simultaneous Nadir Overpasses (SNOs) Prediction Service
